Back to catalog

STARLINK-37055

AliveCommunicationsSSO
NORAD 68147·PAYLOAD·🇺🇸 United States

Launched Mar 13, 2026 from Vandenberg Space Force Base

Loading…

Next Passes (next 24 hours)

TLE

FreshSource: CelesTrak SupGP

Epoch: Sep 14, 2026, 22:42 UTC

1 68147C 26049F   26257.94631944  .00070649  00000+0  21934-2 0  2572
2 68147  97.2838 277.9649 0001640  87.3682  94.5917 15.33399409    16

Track STARLINK-37055 in real time with AllMySat

Download on the App Store